OBJECT U, 57184

Orbit data source: Space-Track

You're viewing an Uncataloged Satellite

Recently launched and/or uncataloged satellites may have evolving metadata. Metadata may include but not limited to: Owner, Maufacturer, Bus, Motor, and Mission.

OBJECT U, 57184 is a satellite in SSO that was launched on Tue, 27 Jun 2023 UTC via a SOYUZ-2-1B launch vehicle from the Vostochny Cosmodrome (VOSTO). Unknown objects in Earth's orbit typically refer to objects detected orbiting the Earth but have not yet been identified or cataloged. These objects could be anything from previously untracked satellites, spent rocket stages, debris from satellite collisions, or even natural meteoroids temporarily captured by Earth's gravity.

Loading next visibility...
Identifier
57184, 2023-091U
Orbit
SSO
Country
Flag of TBDTBD
Related business
Manufacturer
NILAKT DOSAAF
Mission
Operational Amateur Science
Bus & Motor
CUBESAT 3U, Unknown motor
Mass
5 kg wet, 5 kg dry
Launch date (UTC)
2023-06-27 (3 years ago)
Launch vehicle
SOYUZ-2-1B
Launch site
Vostochny Cosmodrome (VOSTO)
Object type
Unknown
Shape & HBR
Box, 0.1 m
Radar Cross Section
0.035 m², Small (<0.1 m²)

Expand to show TLE details & history
Last TLE update: 18 hours ago

TLE from 18 hours ago
0 OBJECT U
1 57184U 23091U   26145.58284225  .00004729  00000-0  23120-3 0  9997
2 57184  97.5088 204.0141 0011239 183.0906 177.0261 15.18661812160526
Epoch: 2026-05-25T13:59Z
TLE epoch observation values (Epoch: 2026-05-25T13:59:17.570Z)
Latitude
0.00002°
Longitude
111.02233°
Altitude
520.702 km
Speed
7.599 km/s
True Right ascension
13h 36m 03s
True Declination
0° 00' 00"
Sunlit
Object was in full shadow at epoch
Visualization orbit readout
Latitude
Unknown
Longitude
Unknown
Altitude
Unknown
Speed
Unknown
Apparent Right ascension
Unknown
Apparent Declination
Unknown
Sunlit
N/A
Visualization observer readout
Local Sidereal Time
17:20:39
Azimuth
Unknown
Elevation
Unknown
Doppler factor
Unknown
Orbital elements
Apogee altitude
514.594 km
Perigee altitude
499.118 km
Semi-major axis
6,884.993 km
Eccentricity
0.00112
Inclination
97.5088°
RAAN
204.0141°
Arg. of periapsis
183.0906°
True anomaly
177.03277°
Mean anomaly
177.0261°
Eccentric anomaly
177.02944°
Mean motion
3.79916 °/min
Orbital period
94.76 mins
BSTAR
0.0002312
Loading maneuver chart data...
Computing Atmospheric mass density...
Loading historical data...
Loading historical data...
Loading historical data...
Loading historical data...
Loading historical data...
Loading historical data...
Loading historical data...

Documentation

Showing up to 5 results
|